STARLINK-31608, 59397

Orbit data source: Space-Track

STARLINK-31608, 59397 is a payload satellite owned by SpaceX/Seattle (US) in LEO that was launched on Tue, 02 Apr 2024 UTC via an FALCON 9 launch vehicle from the Air Force Western Test Range (AFWTR). Payload-class satellites include a variety of spacecraft equipped with specific instruments for various scientific and technological missions. These include communications satellites like Starlink; space stations such as the ISS; scientific satellites like the Hubble; Earth observation satellites from companies like Planet Labs, Umbra, and HawkEye 360; GPS; miniature CubeSats for education and research; and military/defense satellites.

Loading next visibility...
Identifier
59397, 2024-062X
Orbit
LEO
Country
Flag of USUS
Related business
Manufacturer
SpaceX/Seattle
Mission
Operational Commercial Communications
Bus & Motor
STARLINK V2M, Unknown motor
Mass
730 kg wet, ~700 kg dry
Launch date (UTC)
2024-04-02 (2 years ago)
Launch vehicle
FALCON 9
Launch site
Air Force Western Test Range (AFWTR)
Object type
Payload
Rocket body
Debris
Shape & HBR
Box + 2 Pan, 17.7 m
Radar Cross Section
33.884 m², Large (>1 m²)

Expand to show TLE details & history
Last TLE update: 2 days ago

TLE from 2 days ago
0 STARLINK-31608
1 59397U 24062X   26171.17794195  .00000701  00000-0  31886-4 0  9995
2 59397  53.1613 139.5565 0001323  88.0562 272.0592 15.34392871125318
Epoch: 2026-06-20T04:16Z
TLE epoch observation values (Epoch: 2026-06-20T04:16:14.184Z)
Latitude
-0.00003°
Longitude
167.10108°
Altitude
463.594 km
Speed
7.636 km/s
True Right ascension
09h 18m 13s
True Declination
0° 00' 00"
Sunlit
Object was in daylight at epoch
Visualization orbit readout
Latitude
Unknown
Longitude
Unknown
Altitude
Unknown
Speed
Unknown
Apparent Right ascension
Unknown
Apparent Declination
Unknown
Sunlit
N/A
Visualization observer readout
Local Sidereal Time
23:07:26
Azimuth
Unknown
Elevation
Unknown
Doppler factor
Unknown
Orbital elements
Apogee altitude
463.886 km
Perigee altitude
462.076 km
Semi-major axis
6,841.118 km
Eccentricity
0.00013
Inclination
53.1613°
RAAN
139.5565°
Arg. of periapsis
88.0562°
True anomaly
272.04405°
Mean anomaly
272.0592°
Eccentric anomaly
272.05162°
Mean motion
3.83577 °/min
Orbital period
93.85 mins
BSTAR
0.000031886
Loading maneuver chart data...
Computing Atmospheric mass density...
Loading historical data...
Loading historical data...
Loading historical data...
Loading historical data...
Loading historical data...
Loading historical data...
Loading historical data...

Documentation

Showing up to 5 results
|